Time,TemperatureF,DewpointF,PressureIn,WindDirection,WindDirectionDegrees,WindSpeedMPH,WindSpeedGustMPH,Humidity,HourlyPrecipIn,Conditions,Clouds,dailyrainin,SoftwareType,DateUTC
2013-03-03 00:00:00,40.5,28.6,30.27,NNE,32,0.0,1.0,62,0.00,,,0.00,WUHU216DAVISVP2,2013-03-03 06:00:00,
2013-03-03 00:05:00,40.5,28.2,30.27,NNE,32,0.0,1.0,61,0.00,,,0.00,WUHU216DAVISVP2,2013-03-03 06:05:00,
2013-03-03 00:10:00,40.6,27.9,30.27,NNE,32,0.0,1.0,60,0.00,,,0.00,WUHU216DAVISVP2,2013-03-03 06:10:00,
2013-03-03 00:15:00,40.4,28.1,30.27,NNE,32,0.0,1.0,61,0.00,,,0.00,WUHU216DAVISVP2,2013-03-03 06:15:00,
2013-03-03 00:20:00,40.1,27.8,30.27,NNE,32,0.0,1.0,61,0.00,,,0.00,WUHU216DAVISVP2,2013-03-03 06:20:00,
2013-03-03 00:25:00,39.8,27.5,30.27,NNE,32,0.0,1.0,61,0.00,,,0.00,WUHU216DAVISVP2,2013-03-03 06:25:00,
2013-03-03 00:30:00,39.5,27.6,30.27,NNE,32,0.0,0.0,62,0.00,,,0.00,WUHU216DAVISVP2,2013-03-03 06:30:00,
2013-03-03 00:35:00,39.2,27.7,30.27,NNE,32,0.0,0.0,63,0.00,,,0.00,WUHU216DAVISVP2,2013-03-03 06:35:00,
2013-03-03 00:40:00,39.1,27.6,30.27,NNE,32,0.0,0.0,63,0.00,,,0.00,WUHU216DAVISVP2,2013-03-03 06:40:00,
2013-03-03 00:45:00,39.6,27.3,30.27,NNE,32,0.0,0.0,61,0.00,,,0.00,WUHU216DAVISVP2,2013-03-03 06:45:00,
2013-03-03 00:50:00,40.0,27.7,30.27,NNE,32,0.0,0.0,61,0.00,,,0.00,WUHU216DAVISVP2,2013-03-03 06:50:00,
2013-03-03 00:55:00,40.0,27.7,30.27,NNE,32,0.0,0.0,61,0.00,,,0.00,WUHU216DAVISVP2,2013-03-03 06:55:00,
2013-03-03 01:00:00,39.8,27.9,30.27,NNE,32,0.0,0.0,62,0.00,,,0.00,WUHU216DAVISVP2,2013-03-03 07:00:00,
2013-03-03 01:05:00,39.5,27.6,30.27,NNE,32,0.0,0.0,62,0.00,,,0.00,WUHU216DAVISVP2,2013-03-03 07:05:00,
2013-03-03 01:10:00,39.4,27.1,30.27,NNE,32,0.0,0.0,61,0.00,,,0.00,WUHU216DAVISVP2,2013-03-03 07:10:00,
2013-03-03 01:15:00,39.5,27.6,30.27,NNE,32,0.0,0.0,62,0.00,,,0.00,WUHU216DAVISVP2,2013-03-03 07:15:00,
2013-03-03 01:20:00,39.5,27.2,30.27,NNE,32,0.0,0.0,61,0.00,,,0.00,WUHU216DAVISVP2,2013-03-03 07:20:00,
2013-03-03 01:25:00,39.7,27.4,30.27,NNE,32,0.0,0.0,61,0.00,,,0.00,WUHU216DAVISVP2,2013-03-03 07:25:00,
2013-03-03 01:30:00,39.7,27.8,30.27,NNE,32,0.0,0.0,62,0.00,,,0.00,WUHU216DAVISVP2,2013-03-03 07:30:00,
2013-03-03 01:35:00,39.4,27.8,30.27,NNE,32,0.0,0.0,63,0.00,,,0.00,WUHU216DAVISVP2,2013-03-03 07:35:00,
2013-03-03 01:40:00,39.0,27.5,30.26,NNE,32,0.0,0.0,63,0.00,,,0.00,WUHU216DAVISVP2,2013-03-03 07:40:00,
2013-03-03 01:45:00,38.2,26.8,30.26,NNE,32,0.0,1.0,63,0.00,,,0.00,WUHU216DAVISVP2,2013-03-03 07:45:00,
2013-03-03 01:50:00,37.8,27.2,30.27,NNE,32,0.0,1.0,65,0.00,,,0.00,WUHU216DAVISVP2,2013-03-03 07:50:00,
2013-03-03 01:55:00,37.7,27.1,30.26,NNE,32,0.0,1.0,65,0.00,,,0.00,WUHU216DAVISVP2,2013-03-03 07:55:00,
2013-03-03 02:00:00,37.7,27.1,30.27,NNE,32,0.0,1.0,65,0.00,,,0.00,WUHU216DAVISVP2,2013-03-03 08:00:00,
2013-03-03 02:05:00,37.5,27.2,30.26,NNE,32,0.0,1.0,66,0.00,,,0.00,WUHU216DAVISVP2,2013-03-03 08:05:00,
2013-03-03 02:10:00,37.4,27.2,30.27,NNE,32,0.0,1.0,66,0.00,,,0.00,WUHU216DAVISVP2,2013-03-03 08:10:00,
2013-03-03 02:15:00,37.1,26.5,30.26,NNE,32,0.0,1.0,65,0.00,,,0.00,WUHU216DAVISVP2,2013-03-03 08:15:00,
2013-03-03 02:20:00,37.0,27.1,30.26,NNE,32,0.0,0.0,67,0.00,,,0.00,WUHU216DAVISVP2,2013-03-03 08:20:00,
2013-03-03 02:25:00,37.0,27.1,30.26,NNE,32,0.0,0.0,67,0.00,,,0.00,WUHU216DAVISVP2,2013-03-03 08:25:00,
2013-03-03 02:30:00,36.8,26.5,30.25,NNE,32,0.0,0.0,66,0.00,,,0.00,WUHU216DAVISVP2,2013-03-03 08:30:00,
2013-03-03 02:35:00,36.6,26.7,30.25,NNE,32,0.0,0.0,67,0.00,,,0.00,WUHU216DAVISVP2,2013-03-03 08:35:00,
2013-03-03 02:40:00,36.6,27.1,30.25,NNE,32,0.0,0.0,68,0.00,,,0.00,WUHU216DAVISVP2,2013-03-03 08:40:00,
2013-03-03 02:45:00,36.6,27.1,30.25,NNE,32,0.0,0.0,68,0.00,,,0.00,WUHU216DAVISVP2,2013-03-03 08:45:00,
2013-03-03 02:50:00,36.8,27.3,30.25,NNE,32,0.0,0.0,68,0.00,,,0.00,WUHU216DAVISVP2,2013-03-03 08:50:00,
2013-03-03 02:55:00,36.9,27.0,30.25,NNE,32,0.0,0.0,67,0.00,,,0.00,WUHU216DAVISVP2,2013-03-03 08:55:00,
2013-03-03 03:00:00,37.0,27.1,30.24,NNE,32,0.0,0.0,67,0.00,,,0.00,WUHU216DAVISVP2,2013-03-03 09:00:00,
2013-03-03 03:05:00,37.0,26.8,30.24,NNE,32,0.0,0.0,66,0.00,,,0.00,WUHU216DAVISVP2,2013-03-03 09:05:00,
2013-03-03 03:10:00,36.7,26.5,30.24,NNE,32,0.0,0.0,66,0.00,,,0.00,WUHU216DAVISVP2,2013-03-03 09:10:00,
2013-03-03 03:15:00,36.4,26.6,30.24,NNE,32,0.0,0.0,67,0.00,,,0.00,WUHU216DAVISVP2,2013-03-03 09:15:00,
2013-03-03 03:20:00,36.1,26.6,30.24,NNE,32,0.0,0.0,68,0.00,,,0.00,WUHU216DAVISVP2,2013-03-03 09:20:00,
2013-03-03 03:25:00,36.1,26.6,30.24,NNE,32,0.0,2.0,68,0.00,,,0.00,WUHU216DAVISVP2,2013-03-03 09:25:00,
2013-03-03 03:30:00,36.5,26.9,30.23,NNE,32,0.0,2.0,68,0.00,,,0.00,WUHU216DAVISVP2,2013-03-03 09:30:00,
2013-03-03 03:35:00,36.3,26.4,30.23,NNE,32,0.0,2.0,67,0.00,,,0.00,WUHU216DAVISVP2,2013-03-03 09:35:00,
2013-03-03 03:40:00,36.0,26.5,30.23,NNE,32,0.0,2.0,68,0.00,,,0.00,WUHU216DAVISVP2,2013-03-03 09:40:00,
2013-03-03 03:45:00,36.1,27.0,30.23,NNE,32,0.0,0.0,69,0.00,,,0.00,WUHU216DAVISVP2,2013-03-03 09:45:00,
2013-03-03 03:50:00,36.8,26.6,30.23,NNE,32,0.0,0.0,66,0.00,,,0.00,WUHU216DAVISVP2,2013-03-03 09:50:00,
2013-03-03 03:55:00,37.2,27.0,30.24,NNE,32,0.0,1.0,66,0.00,,,0.00,WUHU216DAVISVP2,2013-03-03 09:55:00,
2013-03-03 04:00:00,37.2,27.3,30.24,NNE,32,0.0,1.0,67,0.00,,,0.00,WUHU216DAVISVP2,2013-03-03 10:00:00,
2013-03-03 04:05:00,36.9,27.0,30.24,NW,321,0.0,2.0,67,0.00,,,0.00,WUHU216DAVISVP2,2013-03-03 10:05:00,
2013-03-03 04:10:00,36.6,26.8,30.24,NW,321,0.0,2.0,67,0.00,,,0.00,WUHU216DAVISVP2,2013-03-03 10:10:00,
2013-03-03 04:15:00,36.5,26.7,30.23,NW,321,0.0,2.0,67,0.00,,,0.00,WUHU216DAVISVP2,2013-03-03 10:15:00,
2013-03-03 04:20:00,36.2,26.4,30.24,NW,321,0.0,2.0,67,0.00,,,0.00,WUHU216DAVISVP2,2013-03-03 10:20:00,
2013-03-03 04:25:00,36.1,26.6,30.24,NW,321,0.0,0.0,68,0.00,,,0.00,WUHU216DAVISVP2,2013-03-03 10:25:00,
2013-03-03 04:30:00,35.7,26.5,30.24,NW,321,0.0,0.0,69,0.00,,,0.00,WUHU216DAVISVP2,2013-03-03 10:30:00,
2013-03-03 04:35:00,35.5,26.7,30.24,NW,321,0.0,0.0,70,0.00,,,0.00,WUHU216DAVISVP2,2013-03-03 10:35:00,
2013-03-03 04:40:00,35.3,26.1,30.24,NNE,24,0.0,0.0,69,0.00,,,0.00,WUHU216DAVISVP2,2013-03-03 10:40:00,
2013-03-03 04:45:00,35.2,26.5,30.24,NNE,24,0.0,0.0,70,0.00,,,0.00,WUHU216DAVISVP2,2013-03-03 10:45:00,
2013-03-03 04:50:00,34.7,26.0,30.24,NNE,24,0.0,0.0,70,0.00,,,0.00,WUHU216DAVISVP2,2013-03-03 10:50:00,
2013-03-03 04:55:00,34.3,25.6,30.24,NNE,24,0.0,0.0,70,0.00,,,0.00,WUHU216DAVISVP2,2013-03-03 10:55:00,
2013-03-03 05:00:00,34.0,25.3,30.24,NNE,24,0.0,0.0,70,0.00,,,0.00,WUHU216DAVISVP2,2013-03-03 11:00:00,
2013-03-03 05:05:00,33.9,25.6,30.24,NNE,24,0.0,0.0,71,0.00,,,0.00,WUHU216DAVISVP2,2013-03-03 11:05:00,
2013-03-03 05:10:00,33.9,25.6,30.24,NNE,24,0.0,0.0,71,0.00,,,0.00,WUHU216DAVISVP2,2013-03-03 11:10:00,
2013-03-03 05:15:00,33.5,25.2,30.23,NNE,24,0.0,0.0,71,0.00,,,0.00,WUHU216DAVISVP2,2013-03-03 11:15:00,
2013-03-03 05:20:00,33.2,25.2,30.23,NNE,24,0.0,0.0,72,0.00,,,0.00,WUHU216DAVISVP2,2013-03-03 11:20:00,
2013-03-03 05:25:00,33.3,25.6,30.23,NNE,24,0.0,0.0,73,0.00,,,0.00,WUHU216DAVISVP2,2013-03-03 11:25:00,
2013-03-03 05:30:00,33.2,25.2,30.24,NNE,24,0.0,0.0,72,0.00,,,0.00,WUHU216DAVISVP2,2013-03-03 11:30:00,
2013-03-03 05:35:00,33.3,25.6,30.24,NNE,24,0.0,0.0,73,0.00,,,0.00,WUHU216DAVISVP2,2013-03-03 11:35:00,
2013-03-03 05:40:00,33.4,26.0,30.24,NNE,24,0.0,0.0,74,0.00,,,0.00,WUHU216DAVISVP2,2013-03-03 11:40:00,
2013-03-03 05:45:00,33.5,25.8,30.24,NNE,24,0.0,0.0,73,0.00,,,0.00,WUHU216DAVISVP2,2013-03-03 11:45:00,
2013-03-03 05:50:00,33.7,26.0,30.24,NNE,24,0.0,0.0,73,0.00,,,0.00,WUHU216DAVISVP2,2013-03-03 11:50:00,
2013-03-03 05:55:00,33.5,25.2,30.24,NNE,24,0.0,0.0,71,0.00,,,0.00,WUHU216DAVISVP2,2013-03-03 11:55:00,
2013-03-03 06:00:00,32.9,24.9,30.24,NNE,24,0.0,0.0,72,0.00,,,0.00,WUHU216DAVISVP2,2013-03-03 12:00:00,
2013-03-03 06:05:00,32.7,25.1,30.24,NNE,24,0.0,0.0,73,0.00,,,0.00,WUHU216DAVISVP2,2013-03-03 12:05:00,
2013-03-03 06:10:00,32.5,25.2,30.25,NNE,24,0.0,0.0,74,0.00,,,0.00,WUHU216DAVISVP2,2013-03-03 12:10:00,
2013-03-03 06:15:00,32.6,25.6,30.24,NNE,24,0.0,0.0,75,0.00,,,0.00,WUHU216DAVISVP2,2013-03-03 12:15:00,
2013-03-03 06:20:00,32.8,25.8,30.24,NNE,24,0.0,0.0,75,0.00,,,0.00,WUHU216DAVISVP2,2013-03-03 12:20:00,
2013-03-03 06:25:00,32.8,25.8,30.25,NNE,24,0.0,0.0,75,0.00,,,0.00,WUHU216DAVISVP2,2013-03-03 12:25:00,
2013-03-03 06:30:00,32.8,25.5,30.25,NNE,24,0.0,0.0,74,0.00,,,0.00,WUHU216DAVISVP2,2013-03-03 12:30:00,
2013-03-03 06:35:00,32.7,25.1,30.25,NNE,24,0.0,0.0,73,0.00,,,0.00,WUHU216DAVISVP2,2013-03-03 12:35:00,
2013-03-03 06:40:00,32.8,25.1,30.25,NNE,24,0.0,0.0,73,0.00,,,0.00,WUHU216DAVISVP2,2013-03-03 12:40:00,
2013-03-03 06:45:00,32.7,25.0,30.25,NNE,24,0.0,0.0,73,0.00,,,0.00,WUHU216DAVISVP2,2013-03-03 12:45:00,
2013-03-03 06:50:00,32.4,25.0,30.25,NNE,24,0.0,0.0,74,0.00,,,0.00,WUHU216DAVISVP2,2013-03-03 12:50:00,
2013-03-03 06:55:00,32.1,24.7,30.25,NNE,24,0.0,0.0,74,0.00,,,0.00,WUHU216DAVISVP2,2013-03-03 12:55:00,
2013-03-03 07:00:00,32.0,24.6,30.25,NNE,24,0.0,0.0,74,0.00,,,0.00,WUHU216DAVISVP2,2013-03-03 13:00:00,
2013-03-03 07:05:00,31.9,24.9,30.24,NNE,24,0.0,0.0,75,0.00,,,0.00,WUHU216DAVISVP2,2013-03-03 13:05:00,
2013-03-03 07:10:00,31.7,24.7,30.25,NNE,24,0.0,0.0,75,0.00,,,0.00,WUHU216DAVISVP2,2013-03-03 13:10:00,
2013-03-03 07:15:00,31.6,24.9,30.25,NNE,24,0.0,0.0,76,0.00,,,0.00,WUHU216DAVISVP2,2013-03-03 13:15:00,
2013-03-03 07:20:00,32.0,25.6,30.25,NNE,27,0.0,0.0,77,0.00,,,0.00,WUHU216DAVISVP2,2013-03-03 13:20:00,
2013-03-03 07:25:00,32.5,26.1,30.25,NNE,27,0.0,0.0,77,0.00,,,0.00,WUHU216DAVISVP2,2013-03-03 13:25:00,
2013-03-03 07:30:00,33.3,26.9,30.25,NNE,27,0.0,0.0,77,0.00,,,0.00,WUHU216DAVISVP2,2013-03-03 13:30:00,
2013-03-03 07:35:00,34.1,27.4,30.25,NNE,27,0.0,0.0,76,0.00,,,0.00,WUHU216DAVISVP2,2013-03-03 13:35:00,
2013-03-03 07:40:00,35.3,29.5,30.25,NNE,27,0.0,0.0,79,0.00,,,0.00,WUHU216DAVISVP2,2013-03-03 13:40:00,
2013-03-03 07:45:00,36.4,29.6,30.25,NNE,27,0.0,0.0,76,0.00,,,0.00,WUHU216DAVISVP2,2013-03-03 13:45:00,
2013-03-03 07:50:00,37.5,29.7,30.25,NNE,27,0.0,0.0,73,0.00,,,0.00,WUHU216DAVISVP2,2013-03-03 13:50:00,
2013-03-03 07:55:00,38.6,29.7,30.26,NNE,27,0.0,0.0,70,0.00,,,0.00,WUHU216DAVISVP2,2013-03-03 13:55:00,
2013-03-03 08:00:00,39.7,29.0,30.26,NNE,27,0.0,0.0,65,0.00,,,0.00,WUHU216DAVISVP2,2013-03-03 14:00:00,
2013-03-03 08:05:00,41.0,29.7,30.26,NNE,27,0.0,0.0,64,0.00,,,0.00,WUHU216DAVISVP2,2013-03-03 14:05:00,
2013-03-03 08:10:00,42.0,29.1,30.26,NNE,27,0.0,0.0,60,0.00,,,0.00,WUHU216DAVISVP2,2013-03-03 14:10:00,
2013-03-03 08:15:00,43.2,29.0,30.26,NNE,27,0.0,0.0,57,0.00,,,0.00,WUHU216DAVISVP2,2013-03-03 14:15:00,
2013-03-03 08:20:00,44.3,30.1,30.26,NNE,27,0.0,0.0,57,0.00,,,0.00,WUHU216DAVISVP2,2013-03-03 14:20:00,
2013-03-03 08:25:00,44.9,29.7,30.26,NNE,27,0.0,1.0,55,0.00,,,0.00,WUHU216DAVISVP2,2013-03-03 14:25:00,
2013-03-03 08:30:00,47.0,30.3,30.26,SE,124,1.0,2.0,52,0.00,,,0.00,WUHU216DAVISVP2,2013-03-03 14:30:00,
2013-03-03 08:35:00,47.8,30.0,30.26,SE,125,2.0,3.0,50,0.00,,,0.00,WUHU216DAVISVP2,2013-03-03 14:35:00,
2013-03-03 08:40:00,48.8,29.4,30.26,South,180,0.0,3.0,47,0.00,,,0.00,WUHU216DAVISVP2,2013-03-03 14:40:00,
2013-03-03 08:45:00,49.1,30.2,30.26,SSE,148,2.0,3.0,48,0.00,,,0.00,WUHU216DAVISVP2,2013-03-03 14:45:00,
2013-03-03 08:50:00,50.2,30.1,30.25,SSE,156,1.0,3.0,46,0.00,,,0.00,WUHU216DAVISVP2,2013-03-03 14:50:00,
2013-03-03 08:55:00,50.8,30.1,30.25,South,173,0.0,4.0,45,0.00,,,0.00,WUHU216DAVISVP2,2013-03-03 14:55:00,
2013-03-03 09:00:00,51.3,31.1,30.25,South,191,0.0,5.0,46,0.00,,,0.00,WUHU216DAVISVP2,2013-03-03 15:00:00,
2013-03-03 09:05:00,51.7,31.5,30.25,South,169,0.0,5.0,46,0.00,,,0.00,WUHU216DAVISVP2,2013-03-03 15:05:00,
2013-03-03 09:10:00,52.2,31.9,30.25,South,170,2.0,5.0,46,0.00,,,0.00,WUHU216DAVISVP2,2013-03-03 15:10:00,
2013-03-03 09:15:00,52.6,32.3,30.26,SW,222,0.0,5.0,46,0.00,,,0.00,WUHU216DAVISVP2,2013-03-03 15:15:00,
2013-03-03 09:20:00,53.1,33.9,30.25,SE,134,4.0,4.0,48,0.00,,,0.00,WUHU216DAVISVP2,2013-03-03 15:20:00,
2013-03-03 09:25:00,53.8,34.0,30.25,SSW,212,1.0,5.0,47,0.00,,,0.00,WUHU216DAVISVP2,2013-03-03 15:25:00,
2013-03-03 09:30:00,54.1,34.2,30.25,SSE,147,3.0,5.0,47,0.00,,,0.00,WUHU216DAVISVP2,2013-03-03 15:30:00,
2013-03-03 09:35:00,54.9,35.5,30.25,South,178,2.0,5.0,48,0.00,,,0.00,WUHU216DAVISVP2,2013-03-03 15:35:00,
2013-03-03 09:40:00,56.0,36.0,30.25,South,175,0.0,8.0,47,0.00,,,0.00,WUHU216DAVISVP2,2013-03-03 15:40:00,
2013-03-03 09:45:00,56.8,36.2,30.25,SSW,199,2.0,8.0,46,0.00,,,0.00,WUHU216DAVISVP2,2013-03-03 15:45:00,
2013-03-03 09:50:00,57.1,36.4,30.25,SSW,195,7.0,8.0,46,0.00,,,0.00,WUHU216DAVISVP2,2013-03-03 15:50:00,
2013-03-03 09:55:00,57.3,36.0,30.24,SSW,204,3.0,7.0,45,0.00,,,0.00,WUHU216DAVISVP2,2013-03-03 15:55:00,
2013-03-03 10:00:00,57.5,36.2,30.24,South,184,5.0,8.0,45,0.00,,,0.00,WUHU216DAVISVP2,2013-03-03 16:00:00,
2013-03-03 10:05:00,57.7,36.4,30.24,SSE,159,6.0,9.0,45,0.00,,,0.00,WUHU216DAVISVP2,2013-03-03 16:05:00,
2013-03-03 10:10:00,57.8,37.1,30.24,South,181,1.0,9.0,46,0.00,,,0.00,WUHU216DAVISVP2,2013-03-03 16:10:00,
2013-03-03 10:15:00,58.3,36.4,30.24,SE,144,2.0,10.0,44,0.00,,,0.00,WUHU216DAVISVP2,2013-03-03 16:15:00,
2013-03-03 10:20:00,58.2,36.3,30.24,SSE,154,9.0,10.0,44,0.00,,,0.00,WUHU216DAVISVP2,2013-03-03 16:20:00,
2013-03-03 10:25:00,58.4,36.5,30.24,SSE,160,1.0,13.0,44,0.00,,,0.00,WUHU216DAVISVP2,2013-03-03 16:25:00,
2013-03-03 10:30:00,58.9,36.3,30.23,SSE,162,1.0,13.0,43,0.00,,,0.00,WUHU216DAVISVP2,2013-03-03 16:30:00,
2013-03-03 10:35:00,59.8,37.8,30.23,SSE,147,5.0,13.0,44,0.00,,,0.00,WUHU216DAVISVP2,2013-03-03 16:35:00,
2013-03-03 10:40:00,60.1,36.9,30.23,SSE,153,4.0,10.0,42,0.00,,,0.00,WUHU216DAVISVP2,2013-03-03 16:40:00,
2013-03-03 10:45:00,60.8,36.8,30.23,SSE,162,6.0,10.0,41,0.00,,,0.00,WUHU216DAVISVP2,2013-03-03 16:45:00,
2013-03-03 10:50:00,61.4,37.3,30.22,SE,139,2.0,11.0,41,0.00,,,0.00,WUHU216DAVISVP2,2013-03-03 16:50:00,
2013-03-03 10:55:00,61.9,37.2,30.22,SSE,164,3.0,11.0,40,0.00,,,0.00,WUHU216DAVISVP2,2013-03-03 16:55:00,
2013-03-03 11:00:00,62.7,38.5,30.21,SSE,147,3.0,11.0,41,0.00,,,0.00,WUHU216DAVISVP2,2013-03-03 17:00:00,
2013-03-03 11:05:00,63.2,37.0,30.21,SSE,167,7.0,11.0,38,0.00,,,0.00,WUHU216DAVISVP2,2013-03-03 17:05:00,
2013-03-03 11:10:00,63.9,36.9,30.20,SSW,195,5.0,11.0,37,0.00,,,0.00,WUHU216DAVISVP2,2013-03-03 17:10:00,
2013-03-03 11:15:00,64.6,37.6,30.20,South,179,4.0,11.0,37,0.00,,,0.00,WUHU216DAVISVP2,2013-03-03 17:15:00,
2013-03-03 11:20:00,64.9,36.4,30.20,South,183,2.0,11.0,35,0.00,,,0.00,WUHU216DAVISVP2,2013-03-03 17:20:00,
2013-03-03 11:25:00,64.9,36.4,30.20,South,174,4.0,12.0,35,0.00,,,0.00,WUHU216DAVISVP2,2013-03-03 17:25:00,
2013-03-03 11:30:00,64.8,35.6,30.20,SE,143,3.0,12.0,34,0.00,,,0.00,WUHU216DAVISVP2,2013-03-03 17:30:00,
2013-03-03 11:35:00,65.0,36.7,30.20,SSW,209,1.0,12.0,35,0.00,,,0.00,WUHU216DAVISVP2,2013-03-03 17:35:00,
2013-03-03 11:40:00,65.9,37.3,30.19,SSW,210,2.0,12.0,35,0.00,,,0.00,WUHU216DAVISVP2,2013-03-03 17:40:00,
2013-03-03 11:45:00,66.3,35.3,30.19,SSE,161,4.0,12.0,32,0.00,,,0.00,WUHU216DAVISVP2,2013-03-03 17:45:00,
2013-03-03 11:50:00,66.7,35.7,30.18,SSE,162,3.0,11.0,32,0.00,,,0.00,WUHU216DAVISVP2,2013-03-03 17:50:00,
2013-03-03 11:55:00,66.9,35.9,30.18,SSE,153,10.0,11.0,32,0.00,,,0.00,WUHU216DAVISVP2,2013-03-03 17:55:00,
2013-03-03 12:00:00,67.5,36.4,30.17,SSE,168,3.0,12.0,32,0.00,,,0.00,WUHU216DAVISVP2,2013-03-03 18:00:00,
2013-03-03 12:05:00,68.3,36.3,30.17,SSE,165,4.0,12.0,31,0.00,,,0.00,WUHU216DAVISVP2,2013-03-03 18:05:00,
2013-03-03 12:10:00,68.6,35.7,30.17,SSE,160,2.0,12.0,30,0.00,,,0.00,WUHU216DAVISVP2,2013-03-03 18:10:00,
2013-03-03 12:15:00,68.5,35.8,30.17,South,185,3.0,11.0,30,0.00,,,0.00,WUHU216DAVISVP2,2013-03-03 18:15:00,
2013-03-03 12:20:00,68.8,36.1,30.16,South,169,4.0,11.0,30,0.00,,,0.00,WUHU216DAVISVP2,2013-03-03 18:20:00,
2013-03-03 12:25:00,68.1,36.1,30.16,SSE,168,3.0,13.0,31,0.00,,,0.00,WUHU216DAVISVP2,2013-03-03 18:25:00,
2013-03-03 12:30:00,68.7,36.6,30.15,SE,137,8.0,13.0,31,0.00,,,0.00,WUHU216DAVISVP2,2013-03-03 18:30:00,
2013-03-03 12:35:00,68.8,35.9,30.15,South,180,3.0,13.0,30,0.00,,,0.00,WUHU216DAVISVP2,2013-03-03 18:35:00,
2013-03-03 12:40:00,69.5,38.2,30.14,SSW,207,2.0,13.0,32,0.00,,,0.00,WUHU216DAVISVP2,2013-03-03 18:40:00,
2013-03-03 12:45:00,69.9,35.1,30.14,SSE,168,2.0,12.0,28,0.00,,,0.00,WUHU216DAVISVP2,2013-03-03 18:45:00,
2013-03-03 12:50:00,70.1,35.3,30.13,South,185,1.0,13.0,28,0.00,,,0.00,WUHU216DAVISVP2,2013-03-03 18:50:00,
2013-03-03 12:55:00,70.4,34.7,30.12,SSE,164,9.0,13.0,27,0.00,,,0.00,WUHU216DAVISVP2,2013-03-03 18:55:00,
2013-03-03 13:00:00,70.6,35.9,30.12,SSE,154,4.0,13.0,28,0.00,,,0.00,WUHU216DAVISVP2,2013-03-03 19:00:00,
2013-03-03 13:05:00,70.8,35.1,30.12,SSE,150,2.0,14.0,27,0.00,,,0.00,WUHU216DAVISVP2,2013-03-03 19:05:00,
2013-03-03 13:10:00,71.2,35.3,30.11,SSE,165,3.0,14.0,27,0.00,,,0.00,WUHU216DAVISVP2,2013-03-03 19:10:00,
2013-03-03 13:15:00,71.3,36.3,30.11,SSW,205,2.0,14.0,28,0.00,,,0.00,WUHU216DAVISVP2,2013-03-03 19:15:00,
2013-03-03 13:20:00,71.7,33.9,30.11,SSE,149,7.0,14.0,25,0.00,,,0.00,WUHU216DAVISVP2,2013-03-03 19:20:00,
2013-03-03 13:25:00,71.3,33.5,30.10,South,179,6.0,11.0,25,0.00,,,0.00,WUHU216DAVISVP2,2013-03-03 19:25:00,
2013-03-03 13:30:00,72.3,35.4,30.10,South,176,3.0,11.0,26,0.00,,,0.00,WUHU216DAVISVP2,2013-03-03 19:30:00,
2013-03-03 13:35:00,72.7,36.6,30.10,South,175,5.0,12.0,27,0.00,,,0.00,WUHU216DAVISVP2,2013-03-03 19:35:00,
2013-03-03 13:40:00,72.7,35.8,30.09,SSE,163,4.0,12.0,26,0.00,,,0.00,WUHU216DAVISVP2,2013-03-03 19:40:00,
2013-03-03 13:45:00,71.6,34.9,30.09,South,169,3.0,12.0,26,0.00,,,0.00,WUHU216DAVISVP2,2013-03-03 19:45:00,
2013-03-03 13:50:00,71.5,36.5,30.09,SE,145,4.0,12.0,28,0.00,,,0.00,WUHU216DAVISVP2,2013-03-03 19:50:00,
2013-03-03 13:55:00,72.1,35.2,30.08,SSW,208,5.0,12.0,26,0.00,,,0.00,WUHU216DAVISVP2,2013-03-03 19:55:00,
2013-03-03 14:00:00,72.7,36.6,30.08,SSE,168,3.0,14.0,27,0.00,,,0.00,WUHU216DAVISVP2,2013-03-03 20:00:00,
2013-03-03 14:05:00,73.4,37.2,30.07,SSE,167,6.0,14.0,27,0.00,,,0.00,WUHU216DAVISVP2,2013-03-03 20:05:00,
2013-03-03 14:10:00,73.7,35.6,30.07,SSE,164,2.0,14.0,25,0.00,,,0.00,WUHU216DAVISVP2,2013-03-03 20:10:00,
2013-03-03 14:15:00,73.6,35.5,30.07,SE,146,4.0,14.0,25,0.00,,,0.00,WUHU216DAVISVP2,2013-03-03 20:15:00,
2013-03-03 14:20:00,73.9,34.7,30.07,SSE,147,8.0,14.0,24,0.00,,,0.00,WUHU216DAVISVP2,2013-03-03 20:20:00,
2013-03-03 14:25:00,73.8,35.8,30.06,SSE,156,6.0,14.0,25,0.00,,,0.00,WUHU216DAVISVP2,2013-03-03 20:25:00,
2013-03-03 14:30:00,74.0,35.8,30.06,SSE,158,5.0,13.0,25,0.00,,,0.00,WUHU216DAVISVP2,2013-03-03 20:30:00,
2013-03-03 14:35:00,74.0,34.8,30.06,SSW,201,4.0,14.0,24,0.00,,,0.00,WUHU216DAVISVP2,2013-03-03 20:35:00,
2013-03-03 14:40:00,74.2,35.0,30.05,SSE,164,2.0,14.0,24,0.00,,,0.00,WUHU216DAVISVP2,2013-03-03 20:40:00,
2013-03-03 14:45:00,74.4,36.2,30.05,SSE,157,4.0,14.0,25,0.00,,,0.00,WUHU216DAVISVP2,2013-03-03 20:45:00,
2013-03-03 14:50:00,74.8,35.5,30.05,South,176,4.0,14.0,24,0.00,,,0.00,WUHU216DAVISVP2,2013-03-03 20:50:00,
2013-03-03 14:55:00,75.1,34.7,30.04,South,172,4.0,12.0,23,0.00,,,0.00,WUHU216DAVISVP2,2013-03-03 20:55:00,
2013-03-03 15:00:00,75.5,35.0,30.04,SSE,159,9.0,12.0,23,0.00,,,0.00,WUHU216DAVISVP2,2013-03-03 21:00:00,
2013-03-03 15:05:00,75.5,35.1,30.04,SSE,168,3.0,13.0,23,0.00,,,0.00,WUHU216DAVISVP2,2013-03-03 21:05:00,
2013-03-03 15:10:00,75.7,35.2,30.03,SSE,155,3.0,13.0,23,0.00,,,0.00,WUHU216DAVISVP2,2013-03-03 21:10:00,
2013-03-03 15:15:00,76.0,34.3,30.03,South,170,5.0,13.0,22,0.00,,,0.00,WUHU216DAVISVP2,2013-03-03 21:15:00,
2013-03-03 15:20:00,76.0,34.3,30.03,SSE,165,6.0,16.0,22,0.00,,,0.00,WUHU216DAVISVP2,2013-03-03 21:20:00,
2013-03-03 15:25:00,76.3,33.4,30.03,SSE,157,5.0,16.0,21,0.00,,,0.00,WUHU216DAVISVP2,2013-03-03 21:25:00,
2013-03-03 15:30:00,76.5,32.4,30.02,SE,129,7.0,16.0,20,0.00,,,0.00,WUHU216DAVISVP2,2013-03-03 21:30:00,
2013-03-03 15:35:00,77.0,34.0,30.02,South,175,2.0,16.0,21,0.00,,,0.00,WUHU216DAVISVP2,2013-03-03 21:35:00,
2013-03-03 15:40:00,76.6,32.5,30.02,SSE,168,4.0,13.0,20,0.00,,,0.00,WUHU216DAVISVP2,2013-03-03 21:40:00,
2013-03-03 15:45:00,76.3,32.3,30.01,SW,221,3.0,13.0,20,0.00,,,0.00,WUHU216DAVISVP2,2013-03-03 21:45:00,
2013-03-03 15:50:00,76.4,32.3,30.01,SSW,210,5.0,14.0,20,0.00,,,0.00,WUHU216DAVISVP2,2013-03-03 21:50:00,
2013-03-03 15:55:00,76.4,31.1,30.01,SE,139,5.0,14.0,19,0.00,,,0.00,WUHU216DAVISVP2,2013-03-03 21:55:00,
2013-03-03 16:00:00,76.4,32.3,30.00,SSE,163,4.0,14.0,20,0.00,,,0.00,WUHU216DAVISVP2,2013-03-03 22:00:00,
2013-03-03 16:05:00,76.7,32.6,30.00,SSE,164,5.0,14.0,20,0.00,,,0.00,WUHU216DAVISVP2,2013-03-03 22:05:00,
2013-03-03 16:10:00,77.2,33.0,30.00,SSE,149,5.0,14.0,20,0.00,,,0.00,WUHU216DAVISVP2,2013-03-03 22:10:00,
2013-03-03 16:15:00,76.9,31.5,29.99,South,172,2.0,13.0,19,0.00,,,0.00,WUHU216DAVISVP2,2013-03-03 22:15:00,
2013-03-03 16:20:00,76.6,31.2,30.00,South,169,4.0,15.0,19,0.00,,,0.00,WUHU216DAVISVP2,2013-03-03 22:20:00,
2013-03-03 16:25:00,76.7,32.6,29.99,SSE,159,4.0,15.0,20,0.00,,,0.00,WUHU216DAVISVP2,2013-03-03 22:25:00,
2013-03-03 16:30:00,76.6,32.5,29.99,South,170,4.0,15.0,20,0.00,,,0.00,WUHU216DAVISVP2,2013-03-03 22:30:00,
2013-03-03 16:35:00,76.4,32.3,29.99,South,174,11.0,15.0,20,0.00,,,0.00,WUHU216DAVISVP2,2013-03-03 22:35:00,
2013-03-03 16:40:00,76.4,32.3,29.99,SSE,166,5.0,13.0,20,0.00,,,0.00,WUHU216DAVISVP2,2013-03-03 22:40:00,
2013-03-03 16:45:00,76.5,32.4,29.98,SSE,156,7.0,13.0,20,0.00,,,0.00,WUHU216DAVISVP2,2013-03-03 22:45:00,
2013-03-03 16:50:00,76.3,32.2,29.98,South,170,8.0,13.0,20,0.00,,,0.00,WUHU216DAVISVP2,2013-03-03 22:50:00,
2013-03-03 16:55:00,76.2,32.2,29.98,South,184,8.0,13.0,20,0.00,,,0.00,WUHU216DAVISVP2,2013-03-03 22:55:00,
2013-03-03 17:00:00,76.1,33.3,29.98,South,170,6.0,13.0,21,0.00,,,0.00,WUHU216DAVISVP2,2013-03-03 23:00:00,
2013-03-03 17:05:00,76.0,32.0,29.98,South,185,6.0,13.0,20,0.00,,,0.00,WUHU216DAVISVP2,2013-03-03 23:05:00,
2013-03-03 17:10:00,75.9,31.9,29.98,South,186,4.0,12.0,20,0.00,,,0.00,WUHU216DAVISVP2,2013-03-03 23:10:00,
2013-03-03 17:15:00,75.8,31.8,29.97,South,177,2.0,12.0,20,0.00,,,0.00,WUHU216DAVISVP2,2013-03-03 23:15:00,
2013-03-03 17:20:00,75.8,33.0,29.97,SSE,149,3.0,11.0,21,0.00,,,0.00,WUHU216DAVISVP2,2013-03-03 23:20:00,
2013-03-03 17:25:00,75.8,33.0,29.97,SE,131,4.0,12.0,21,0.00,,,0.00,WUHU216DAVISVP2,2013-03-03 23:25:00,
2013-03-03 17:30:00,75.5,32.8,29.97,SE,126,10.0,12.0,21,0.00,,,0.00,WUHU216DAVISVP2,2013-03-03 23:30:00,
2013-03-03 17:35:00,75.2,32.6,29.97,SE,131,4.0,12.0,21,0.00,,,0.00,WUHU216DAVISVP2,2013-03-03 23:35:00,
2013-03-03 17:40:00,75.0,32.4,29.97,SSE,160,3.0,11.0,21,0.00,,,0.00,WUHU216DAVISVP2,2013-03-03 23:40:00,
2013-03-03 17:45:00,74.7,32.1,29.97,SE,143,7.0,11.0,21,0.00,,,0.00,WUHU216DAVISVP2,2013-03-03 23:45:00,
2013-03-03 17:50:00,74.4,31.9,29.97,South,171,4.0,12.0,21,0.00,,,0.00,WUHU216DAVISVP2,2013-03-03 23:50:00,
2013-03-03 17:55:00,74.4,31.9,29.97,SSE,154,6.0,12.0,21,0.00,,,0.00,WUHU216DAVISVP2,2013-03-03 23:55:00,
2013-03-03 18:00:00,74.2,31.7,29.97,SE,145,4.0,12.0,21,0.00,,,0.00,WUHU216DAVISVP2,2013-03-04 00:00:00,
2013-03-03 18:05:00,73.8,31.4,29.97,SE,137,4.0,12.0,21,0.00,,,0.00,WUHU216DAVISVP2,2013-03-04 00:05:00,
2013-03-03 18:10:00,73.6,32.3,29.97,SSE,154,5.0,11.0,22,0.00,,,0.00,WUHU216DAVISVP2,2013-03-04 00:10:00,
2013-03-03 18:15:00,73.2,32.0,29.97,South,173,2.0,10.0,22,0.00,,,0.00,WUHU216DAVISVP2,2013-03-04 00:15:00,
2013-03-03 18:20:00,72.9,31.7,29.97,SSE,162,3.0,10.0,22,0.00,,,0.00,WUHU216DAVISVP2,2013-03-04 00:20:00,
2013-03-03 18:25:00,72.6,31.5,29.97,SE,146,2.0,9.0,22,0.00,,,0.00,WUHU216DAVISVP2,2013-03-04 00:25:00,
2013-03-03 18:30:00,72.0,32.1,29.97,SSE,151,3.0,8.0,23,0.00,,,0.00,WUHU216DAVISVP2,2013-03-04 00:30:00,
2013-03-03 18:35:00,71.6,31.7,29.97,SSE,167,2.0,8.0,23,0.00,,,0.00,WUHU216DAVISVP2,2013-03-04 00:35:00,
2013-03-03 18:40:00,71.0,31.2,29.97,SSE,167,0.0,8.0,23,0.00,,,0.00,WUHU216DAVISVP2,2013-03-04 00:40:00,
2013-03-03 18:45:00,70.3,31.7,29.97,SSE,157,1.0,8.0,24,0.00,,,0.00,WUHU216DAVISVP2,2013-03-04 00:45:00,
2013-03-03 18:50:00,69.6,32.1,29.97,SSE,158,2.0,5.0,25,0.00,,,0.00,WUHU216DAVISVP2,2013-03-04 00:50:00,
2013-03-03 18:55:00,68.9,31.5,29.97,SSE,153,2.0,5.0,25,0.00,,,0.00,WUHU216DAVISVP2,2013-03-04 00:55:00,
2013-03-03 19:00:00,68.8,31.4,29.97,SSE,160,1.0,5.0,25,0.00,,,0.00,WUHU216DAVISVP2,2013-03-04 01:00:00,
2013-03-03 19:05:00,68.1,31.8,29.97,SSE,147,2.0,4.0,26,0.00,,,0.00,WUHU216DAVISVP2,2013-03-04 01:05:00,
2013-03-03 19:10:00,68.3,32.9,29.97,SE,137,4.0,14.0,27,0.00,,,0.00,WUHU216DAVISVP2,2013-03-04 01:10:00,
2013-03-03 19:15:00,68.1,35.3,29.97,SSE,147,9.0,14.0,30,0.00,,,0.00,WUHU216DAVISVP2,2013-03-04 01:15:00,
2013-03-03 19:20:00,67.9,40.5,29.97,SE,134,6.0,14.0,37,0.00,,,0.00,WUHU216DAVISVP2,2013-03-04 01:20:00,
2013-03-03 19:25:00,67.5,41.5,29.97,SE,141,12.0,14.0,39,0.00,,,0.00,WUHU216DAVISVP2,2013-03-04 01:25:00,
2013-03-03 19:30:00,67.1,41.8,29.97,SE,135,9.0,14.0,40,0.00,,,0.00,WUHU216DAVISVP2,2013-03-04 01:30:00,
2013-03-03 19:35:00,66.8,42.2,29.97,SE,135,4.0,14.0,41,0.00,,,0.00,WUHU216DAVISVP2,2013-03-04 01:35:00,
2013-03-03 19:40:00,66.5,42.6,29.97,SE,146,10.0,14.0,42,0.00,,,0.00,WUHU216DAVISVP2,2013-03-04 01:40:00,
2013-03-03 19:45:00,66.3,43.0,29.97,SE,140,4.0,15.0,43,0.00,,,0.00,WUHU216DAVISVP2,2013-03-04 01:45:00,
2013-03-03 19:50:00,65.9,42.7,29.97,SSE,166,11.0,15.0,43,0.00,,,0.00,WUHU216DAVISVP2,2013-03-04 01:50:00,
2013-03-03 19:55:00,65.6,43.0,29.97,SE,132,4.0,15.0,44,0.00,,,0.00,WUHU216DAVISVP2,2013-03-04 01:55:00,
2013-03-03 20:00:00,65.3,42.8,29.97,SSE,148,6.0,15.0,44,0.00,,,0.00,WUHU216DAVISVP2,2013-03-04 02:00:00,
2013-03-03 20:05:00,65.0,43.1,29.97,SSE,147,3.0,14.0,45,0.00,,,0.00,WUHU216DAVISVP2,2013-03-04 02:05:00,
2013-03-03 20:10:00,64.9,43.0,29.97,SE,142,9.0,15.0,45,0.00,,,0.00,WUHU216DAVISVP2,2013-03-04 02:10:00,
2013-03-03 20:15:00,64.8,42.9,29.97,SE,135,4.0,15.0,45,0.00,,,0.00,WUHU216DAVISVP2,2013-03-04 02:15:00,
2013-03-03 20:20:00,64.2,42.9,29.97,SE,131,8.0,15.0,46,0.00,,,0.00,WUHU216DAVISVP2,2013-03-04 02:20:00,
2013-03-03 20:25:00,63.9,43.2,29.97,SE,131,4.0,15.0,47,0.00,,,0.00,WUHU216DAVISVP2,2013-03-04 02:25:00,
2013-03-03 20:30:00,63.5,42.9,29.97,SE,139,5.0,13.0,47,0.00,,,0.00,WUHU216DAVISVP2,2013-03-04 02:30:00,
2013-03-03 20:35:00,63.3,42.7,29.97,SSE,156,11.0,13.0,47,0.00,,,0.00,WUHU216DAVISVP2,2013-03-04 02:35:00,
2013-03-03 20:40:00,63.2,42.6,29.97,SSE,156,5.0,14.0,47,0.00,,,0.00,WUHU216DAVISVP2,2013-03-04 02:40:00,
2013-03-03 20:45:00,62.7,42.7,29.98,SE,136,7.0,14.0,48,0.00,,,0.00,WUHU216DAVISVP2,2013-03-04 02:45:00,
2013-03-03 20:50:00,62.3,42.3,29.98,South,178,3.0,13.0,48,0.00,,,0.00,WUHU216DAVISVP2,2013-03-04 02:50:00,
2013-03-03 20:55:00,62.1,42.7,29.98,SSE,165,7.0,13.0,49,0.00,,,0.00,WUHU216DAVISVP2,2013-03-04 02:55:00,
2013-03-03 21:00:00,61.8,42.4,29.98,South,181,4.0,10.0,49,0.00,,,0.00,WUHU216DAVISVP2,2013-03-04 03:00:00,
2013-03-03 21:05:00,61.7,42.3,29.98,SSE,148,6.0,10.0,49,0.00,,,0.00,WUHU216DAVISVP2,2013-03-04 03:05:00,
2013-03-03 21:10:00,61.4,42.6,29.98,SE,133,2.0,10.0,50,0.00,,,0.00,WUHU216DAVISVP2,2013-03-04 03:10:00,
2013-03-03 21:15:00,61.1,42.3,29.98,SE,144,6.0,10.0,50,0.00,,,0.00,WUHU216DAVISVP2,2013-03-04 03:15:00,
2013-03-03 21:20:00,60.9,42.6,29.98,SSE,156,7.0,10.0,51,0.00,,,0.00,WUHU216DAVISVP2,2013-03-04 03:20:00,
2013-03-03 21:25:00,60.6,42.4,29.98,SSE,153,7.0,10.0,51,0.00,,,0.00,WUHU216DAVISVP2,2013-03-04 03:25:00,
2013-03-03 21:30:00,60.4,42.2,29.98,SSE,147,2.0,10.0,51,0.00,,,0.00,WUHU216DAVISVP2,2013-03-04 03:30:00,
2013-03-03 21:35:00,60.2,42.5,29.98,SE,143,7.0,11.0,52,0.00,,,0.00,WUHU216DAVISVP2,2013-03-04 03:35:00,
2013-03-03 21:40:00,59.9,42.3,29.97,SSE,151,5.0,12.0,52,0.00,,,0.00,WUHU216DAVISVP2,2013-03-04 03:40:00,
2013-03-03 21:45:00,59.6,42.0,29.97,ESE,116,7.0,12.0,52,0.00,,,0.00,WUHU216DAVISVP2,2013-03-04 03:45:00,
2013-03-03 21:50:00,59.6,42.5,29.97,SSE,153,3.0,12.0,53,0.00,,,0.00,WUHU216DAVISVP2,2013-03-04 03:50:00,
2013-03-03 21:55:00,59.5,42.4,29.97,SSE,159,5.0,10.0,53,0.00,,,0.00,WUHU216DAVISVP2,2013-03-04 03:55:00,
2013-03-03 22:00:00,59.3,42.7,29.97,South,188,7.0,10.0,54,0.00,,,0.00,WUHU216DAVISVP2,2013-03-04 04:00:00,
2013-03-03 22:05:00,59.1,42.5,29.97,SSW,193,9.0,10.0,54,0.00,,,0.00,WUHU216DAVISVP2,2013-03-04 04:05:00,
2013-03-03 22:10:00,58.7,42.6,29.97,SE,139,6.0,10.0,55,0.00,,,0.00,WUHU216DAVISVP2,2013-03-04 04:10:00,
2013-03-03 22:15:00,58.5,42.5,29.97,SSE,154,3.0,10.0,55,0.00,,,0.00,WUHU216DAVISVP2,2013-03-04 04:15:00,
2013-03-03 22:20:00,58.2,42.7,29.97,SE,140,4.0,10.0,56,0.00,,,0.00,WUHU216DAVISVP2,2013-03-04 04:20:00,
2013-03-03 22:25:00,58.0,42.5,29.97,SE,145,5.0,10.0,56,0.00,,,0.00,WUHU216DAVISVP2,2013-03-04 04:25:00,
2013-03-03 22:30:00,58.0,42.5,29.97,SSE,163,5.0,10.0,56,0.00,,,0.00,WUHU216DAVISVP2,2013-03-04 04:30:00,
2013-03-03 22:35:00,57.8,42.3,29.97,SSE,165,3.0,8.0,56,0.00,,,0.00,WUHU216DAVISVP2,2013-03-04 04:35:00,
2013-03-03 22:40:00,57.8,42.8,29.97,SSE,158,1.0,8.0,57,0.00,,,0.00,WUHU216DAVISVP2,2013-03-04 04:40:00,
2013-03-03 22:45:00,57.7,42.7,29.96,South,172,1.0,8.0,57,0.00,,,0.00,WUHU216DAVISVP2,2013-03-04 04:45:00,
2013-03-03 22:50:00,57.6,42.6,29.97,SSE,158,2.0,9.0,57,0.00,,,0.00,WUHU216DAVISVP2,2013-03-04 04:50:00,
2013-03-03 22:55:00,57.7,42.7,29.97,South,169,2.0,9.0,57,0.00,,,0.00,WUHU216DAVISVP2,2013-03-04 04:55:00,
2013-03-03 23:00:00,57.5,42.8,29.96,SSE,160,2.0,9.0,58,0.00,,,0.00,WUHU216DAVISVP2,2013-03-04 05:00:00,
2013-03-03 23:05:00,57.3,42.6,29.96,South,174,4.0,11.0,58,0.00,,,0.00,WUHU216DAVISVP2,2013-03-04 05:05:00,
2013-03-03 23:10:00,57.3,42.7,29.96,SSE,158,2.0,11.0,58,0.00,,,0.00,WUHU216DAVISVP2,2013-03-04 05:10:00,
2013-03-03 23:15:00,57.1,43.0,29.96,South,181,2.0,11.0,59,0.00,,,0.00,WUHU216DAVISVP2,2013-03-04 05:15:00,
2013-03-03 23:20:00,57.0,42.9,29.96,SSE,161,4.0,11.0,59,0.00,,,0.00,WUHU216DAVISVP2,2013-03-04 05:20:00,
2013-03-03 23:25:00,57.1,43.0,29.96,SE,139,5.0,8.0,59,0.00,,,0.00,WUHU216DAVISVP2,2013-03-04 05:25:00,
2013-03-03 23:30:00,57.2,43.6,29.96,SE,146,4.0,10.0,60,0.00,,,0.00,WUHU216DAVISVP2,2013-03-04 05:30:00,
2013-03-03 23:35:00,57.2,43.6,29.96,SSE,159,5.0,10.0,60,0.00,,,0.00,WUHU216DAVISVP2,2013-03-04 05:35:00,
2013-03-03 23:40:00,57.3,43.6,29.95,SSE,165,6.0,10.0,60,0.00,,,0.00,WUHU216DAVISVP2,2013-03-04 05:40:00,
2013-03-03 23:45:00,57.3,43.6,29.95,South,183,4.0,10.0,60,0.00,,,0.00,WUHU216DAVISVP2,2013-03-04 05:45:00,
2013-03-03 23:50:00,57.2,44.0,29.95,SE,146,1.0,10.0,61,0.00,,,0.00,WUHU216DAVISVP2,2013-03-04 05:50:00,
2013-03-03 23:55:00,57.2,44.0,29.95,SSE,164,4.0,10.0,61,0.00,,,0.00,WUHU216DAVISVP2,2013-03-04 05:55:00,